Location: DARK SKY Beskydy - Park tmavé oblohy, www.darkskybeskydy.cz
(49.4926°N, 18.5016°E)
Time: 11:04:18
(UTC+02:00)

Vanguard 1 - Pass Details

Date: 02 March 2024
Orbit: 653 x 3825 km, 34.2° (Epoch: 12 April)

Event Time Altitude Azimuth Distance (km) Brightness Sun altitude
Rises 20:08:41 0° 252° (WSW) 5,190 14.5 -26.0°
Reaches altitude 10° 20:11:41 10° 246° (WSW) 4,543 14.0 -26.4°
Maximum altitude 20:24:31 47° 178° (S) 3,616 12.6 -28.3°
Enters shadow 20:31:30 37° 138° (SE) 4,468 12.8 -29.4°
Drops below altitude 10° 20:44:36 10° 114° (ESE) 6,863 - -31.2°
Sets 20:50:30 0° 110° (ESE) 7,963 - -32.1°
